TIME,DELAY(SENSOR),PRES,OXYGEN,RAWTEMP,T(OPTODE),TCPHASE,FLUOR,BETA(BETA700),BETA(BETA412),BETA(BETA440),CDOM,C(CSC),ED(ED411.90),ED(ED443.80),ED(ED489.40),ED(ED554.70),LU(LU412.20),LU(LU443.80),LU(LU489.40),LU(LU555.00),COMP,TILTX,TILTY,CHECK
1372545566,5808,846.9000244140625000,153.2570037841797000,393.8851928710937500,10.7890100479125980,39.4029693603515600,52,96,90,79,78,10325,2146959616,2147517632,2147286985,2147489782,2147081216,2146929645,2147693385,2147124781,907,-1,8,27665
1372549162,5804,962.0000000000000000,166.9963989257812500,475.4671936035156000,8.2886562347412110,39.6965103149414060,53,95,91,80,80,10325,2146960173,2147522624,2147294656,2147504987,2147086976,2146925513,2147711241,2147124836,2272,-1,8,43498
1372552762,5805,982.2199707031250000,173.0119018554687500,489.2811889648437500,7.8616561889648440,39.4998207092285160,52,98,91,79,80,10326,2146963318,2147519122,2147294208,2147507465,2147084187,2146921709,2147714340,2147124050,2031,-1,8,62742
1372556362,5804,983.1500244140625000,155.4613952636718800,491.4419860839844000,7.7947568893432620,40.8422508239746100,51,95,92,78,79,10302,2146961837,2147520219,2147296813,2147509504,2147086656,2146925595,2147714870,2147121216,3255,-1,8,42366
1372559962,5807,985.4600219726562000,153.2301025390625000,493.6059875488281000,7.7277240753173830,41.0546112060546900,50,103,91,78,80,10298,2146958208,2147520850,2147298203,2147511872,2147085732,2146924050,2147715849,2147121709,590,-1,8,5163
1372563562,5807,992.7999877929688000,166.7834014892578000,493.0965881347656000,7.7435078620910645,40.0140991210937500,52,95,90,79,79,10294,2146961197,2147517897,2147292315,2147510921,2147083081,2146919533,2147715739,2147121453,137,-1,8,6724
1372567162,5806,989.6400146484375000,154.5823974609375000,494.3111877441406000,7.7058758735656740,40.9597206115722660,51,95,92,79,80,10297,2146961965,2147521371,2147294893,2147508452,2147085686,2146925924,2147716653,2147122651,3336,-1,8,37772
1372570762,5803,991.8900146484375000,159.3674011230468800,496.1441040039062500,7.6490697860717770,40.6214408874511700,53,95,91,78,80,10298,2146959049,2147519378,2147293677,2147510098,2147086052,2146923300,2147716068,2147121627,3479,-1,8,64136
1372574362,5804,994.8400268554688000,150.9936981201172000,496.9034118652344000,7.6255288124084470,41.2872390747070300,53,94,91,78,79,10299,2146961069,2147519286,2147295424,2147513499,2147084699,2146922605,2147718134,2147121673,3469,-1,8,10066
1372577962,5804,997.1500244140625000,174.8796997070312500,496.8369140625000000,7.6275911331176760,39.4977607727050800,52,97,91,79,79,10291,2146962889,2147519323,2147295945,2147508608,2147082989,2146918070,2147711798,2147126290,3442,-1,8,18223
1372581562,5808,995.4099731445312000,162.8981933593750000,496.6288146972656000,7.6340460777282715,40.3632507324218750,53,97,93,78,80,10297,2146960219,2147519305,2147297216,2147509302,2147085312,2146928832,2147715017,2147121472,3198,-1,8,17777
1372585162,5806,1002.4000244140625000,168.5736999511718800,496.1706848144531000,7.6482467651367190,39.9371604919433600,52,96,92,80,80,10295,2146960786,2147519405,2147296420,2147511332,2147087186,2146920109,2147714852,2147123419,254,-1,8,27661
1372588762,5805,1004.4199829101562000,177.5415039062500000,494.8272094726562500,7.6898860931396480,39.2772102355957000,52,93,91,80,79,10299,2146958656,2147516653,2147295780,2147511213,2147088521,2146919926,2147714962,2147124900,3508,-1,8,37277
1372592362,5808,1003.2199707031250000,172.6165008544922000,494.7031860351562500,7.6937279701232910,39.6212997436523440,52,94,91,79,80,10294,2146960576,2147521664,2147297371,2147512265,2147086354,2146927899,2147718582,2147124909,3568,-1,8,17769
1372595962,5803,1004.9400024414062000,172.4241027832031200,492.8313903808594000,7.7517237663269040,39.6018791198730500,52,99,92,79,79,10296,2146961764,2147516854,2147296219,2147507830,2147084800,2146919222,2147715840,2147122880,3059,-1,8,15478
1372599562,5805,999.8699951171875000,171.9134979248047000,495.3948059082031000,7.6722960472106930,39.6832008361816400,52,95,92,79,80,10290,2146959469,2147517248,2147295058,2147512704,2147083885,2146925184,2147713664,2147124187,1447,-1,8,46728
1372603162,5802,997.4199829101562000,168.2014007568359400,496.6361999511719000,7.6338138580322270,39.9715690612793000,52,94,92,78,80,10292,2146959533,2147519003,2147297398,2147510308,2147085952,2146918235,2147713298,2147123593,1417,-1,8,16056
1372606762,5805,995.2100219726562000,183.6085968017578000,498.6561889648437500,7.5711779594421390,38.9303588867187500,52,96,90,82,79,10294,2146959936,2147516004,2147296018,2147511661,2147086774,2146923062,2147712722,2147126637,3193,-1,8,29234
1372610362,5805,999.6900024414062000,189.8236999511718800,498.5490112304687500,7.5745029449462890,38.5181312561035160,51,96,92,78,79,10285,2146963456,2147518564,2147293778,2147510930,2147086601,2146917467,2147719771,2147121462,3404,-1,8,35061
1372613962,5809,1001.1199951171875000,187.9308929443359400,498.9779052734375000,7.5612001419067380,38.6489906311035160,51,94,91,78,79,10286,2146960795,2147522038,2147299529,2147510802,2147084672,2146927030,2147714825,2147123501,326,-1,8,26381
1372617562,5807,997.4099731445312000,184.9949951171875000,499.7431945800781000,7.5374588966369630,38.8566017150878900,51,97,90,81,79,10279,2146958756,2147518893,2147298916,2147508937,2147087369,2146920877,2147715821,2147122066,281,-1,8,42249
1372621162,5809,998.7100219726562000,186.5812072753906200,500.4009094238281000,7.5170559883117680,38.7623710632324200,51,96,92,79,79,10282,2146959140,2147521417,2147296210,2147508169,2147085513,2146922276,2147715657,2147122834,332,-1,8,12346
1372624762,5806,1002.5599975585938000,186.9535980224609400,499.2268981933594000,7.5534758567810060,38.7176017761230500,52,97,91,78,80,10280,2146960475,2147520082,2147303305,2147510912,2147083858,2146912731,2147714587,2147122294,151,-1,8,6411
1372628362,5807,1001.0700073242188000,186.9449005126953000,499.7926940917969000,7.5359249114990230,38.7286300659179700,52,94,97,80,80,10282,2146959771,2147522678,2147299757,2147511241,2147087789,2146919753,2147715382,2147120502,141,-1,8,8506
1372631962,5802,1005.8499755859375000,184.3925933837890600,498.9328002929687500,7.5625967979431150,38.8826217651367200,52,97,91,80,80,10277,2146963254,2147519606,2147298761,2147509714,2147083794,2146920374,2147717714,2147123181,3258,-1,8,47978
1372635562,5804,1010.2199707031250000,190.9394989013672000,497.4031982421875000,7.6100339889526370,38.4258308410644500,52,96,91,79,78,10281,2146960969,2147517522,2147296118,2147513270,2147086802,2146921234,2147716818,2147122898,913,-1,8,25874
1372639162,5807,1009.1199951171875000,190.1898956298828000,496.1785888671875000,7.6479997634887695,38.4528007507324200,51,95,91,81,79,10276,2146961362,2147520146,2147297206,2147513920,2147087085,2146919771,2147719003,2147121435,3371,-1,8,3237
1372642762,5806,1010.9600219726562000,185.9237060546875000,496.2088012695312500,7.6470642089843750,38.7336006164550800,51,94,92,79,80,10280,2146962020,2147518464,2147301065,2147513078,2147089115,2146921691,2147712027,2147121974,3509,-1,8,12281
1372646362,5809,1005.5900268554688000,184.4127960205078000,496.9301147460937500,7.6247038841247560,38.8467483520507800,52,94,92,79,80,10278,2146958765,2147517376,2147299227,2147512905,2147085723,2146924251,2147716918,2147122770,18,-1,8,20028
1372649962,5804,1005.7700195312500000,172.2574005126953000,498.4555969238281000,7.5774002075195310,39.7121505737304700,52,93,91,82,80,10278,2146962340,2147520621,2147300745,2147511634,2147085622,2146921536,2147716635,2147125805,165,-1,8,3501
1372653562,5806,1007.0599975585938000,176.3152008056640600,498.2135009765625000,7.5849070549011230,39.4211387634277340,52,94,91,79,80,10276,2146960722,2147520475,2147298432,2147511753,2147087524,2146925897,2147709952,2147122706,259,-1,8,36214
1372657162,5808,1001.2500000000000000,183.7505950927734400,498.5310058593750000,7.5750598907470700,38.9188804626464840,51,94,91,78,79,10279,2146962422,2147517019,2147300105,2147510445,2147087460,2146922057,2147712274,2147122834,61,-1,8,23312
1372660762,5808,1009.8200073242188000,188.8141021728515600,498.5658874511719000,7.5739769935607910,38.5840492248535160,51,95,92,78,80,10276,2146962011,2147519268,2147298852,2147512950,2147087122,2146925540,2147712886,2147125330,108,-1,8,21877
1372664362,5806,1003.9000244140625000,179.2648925781250000,499.0761108398437500,7.5581531524658200,39.2321395874023440,52,96,92,80,79,10276,2146960320,2147520329,2147297819,2147511332,2147084626,2146922816,2147715099,2147123812,76,-1,8,3199
1372667962,5807,1007.3699951171875000,182.1434020996093800,499.1413879394531000,7.5561280250549320,39.0378608703613300,52,96,91,78,79,10270,2146961700,2147521188,2147298313,2147511716,2147085010,2146919808,2147715940,2147123364,119,-1,8,41565
1372671562,5807,1005.1099853515625000,188.5381927490234400,498.4327087402344000,7.5781078338623050,38.5999488830566400,52,97,91,78,80,10269,2146964772,2147518820,2147296475,2147510418,2147085860,2146921353,2147719067,2147121709,48,-1,8,13434
1372675162,5807,1012.0800170898438000,188.5639953613281200,498.2015075683594000,7.5852789878845215,38.5943794250488300,51,97,90,79,80,10266,2146962843,2147518656,2147297536,2147511643,2147085504,2146917851,2147716525,2147121984,92,-1,8,4040
1372678762,5806,1007.4799804687500000,184.1529998779297000,498.4389953613281000,7.5779128074646000,38.8903694152832000,51,94,91,79,80,10270,2146961965,2147519076,2147297179,2147508187,2147085988,2146927625,2147717330,2147123355,333,-1,8,19859
1372682362,5808,1007.4799804687500000,181.6293029785156200,499.4848022460937500,7.5454769134521480,39.0778007507324200,52,100,91,80,80,10266,2146964681,2147520713,2147297316,2147510976,2147085476,2146922934,2147713490,2147122998,297,-1,8,35111
1372685962,5808,1012.2800292968750000,187.8394927978515600,498.8041992187500000,7.5665869712829590,38.6523094177246100,51,96,91,79,80,10266,2146962368,2147520621,2147297664,2147511862,2147083364,2146928493,2147714788,2147126326,192,-1,8,59788
1372687256,5807,1010.1099853515625000,192.4799957275390600,497.8546142578125000,7.5960359573364260,38.3346290588378900,53,95,90,78,79,10277,2146961298,2147519716,2147295414,2147507501,2147082715,2146925805,2147714797,2147123693,2996,-1,8,19347
